Tracking 28790 objects as of 19-Apr-2024
HD Live streaming from Space Station
objects crossing your sky now

FENGYUN 1C DEB

Track FENGYUN 1C DEB now!
10-day predictions


NORAD ID: 32171
Int'l Code: 1999-025CTR
Perigee: 752.0 km
Apogee: 1,525.1 km
Inclination: 102.8 °
Period: 107.9 minutes
Semi major axis: 7509 km
RCS: 0.0135 m2 (small)
Launch date: May 10, 1999
Source: People's Republic of China (PRC)
Launch site: Taiyaun Space Center, China (TSC)

Note: This is SATELLITE DEBRIS
Your satellite tracking list
Your tracking list is empty




NASA's NSSDC Master Catalog

Two Line Element Set (TLE):
1 32171U 99025CTR 24098.13935398  .00003862  00000-0  37243-2 0  9993
2 32171 102.8085 187.0653 0514725 247.8162 233.8441 13.34074444523890
Source of the keplerian elements: AFSPC